Alma, MI

8:34 PM EDT on June 28, 2017 (GMT -0400)
Gratiot Community

Weather History for KAMN - March, 2013

Change the Weather History Date:

Tuesday, March 26, 2013

  Actual Average Record
Temperature  
Mean Temperature 36 °F -  
Max Temperature 42 °F 46 °F 75 °F (2007)
Min Temperature 30 °F 26 °F 7 °F (2014)
Degree Days  
Heating Degree Days 29    
Moisture  
Dew Point 29 °F    
Average Humidity 77    
Maximum Humidity 94    
Minimum Humidity 57    
Precipitation  
Precipitation 0.00 in - - ()
Sea Level Pressure  
Sea Level Pressure 30.04 in    
Wind  
Wind Speed 8 mph (NW)    
Max Wind Speed 14 mph    
Max Gust Speed 21 mph    
Visibility 10 miles    
Events Snow    
Averages and records for this station are not official NWS values.
T = Trace of Precipitation, MM = Missing Value Source: NWS Daily Summary

Daily Weather History Graph

Daily Weather History Graph

Search for Another Location

Airport or City:

Trip Planner

Search our weather history database for the weather conditions in past years. The results will help you decide how hot, cold, wet, or windy it might be!

Date:

Astronomy

Mar. 26, 2013 Rise Set
Actual Time 7:30 AM EDT 7:58 PM EDT
Civil Twilight 7:02 AM EDT 8:27 PM EDT
Nautical Twilight 6:28 AM EDT 9:00 PM EDT
Astronomical Twilight 5:53 AM EDT 9:35 PM EDT
Moon 7:34 PM EDT (3/26) 6:47 AM EDT (3/26)
Length of Visible Light 13h 24m
Length of Day
12h 27m
Waxing Gibbous, 99% of the Moon is Illuminated
Mar 26
Waxing Gibbous
Mar 27
Full
Apr 3
Last Quarter
Apr 10
New
Apr 18
First Quarter

Hourly Weather History & Observations

Time (EDT) Temp. Windchill Dew Point Humidity Pressure Visibility Wind Dir Wind Speed Gust Speed Precip Events Conditions
12:12 AM 34.0 °F 27.2 °F 27.1 °F 76% 29.95 in 10.0 mi NNW 8.1 mph - N/A   Overcast
12:32 AM 34.0 °F 26.0 °F 27.0 °F 75% 29.96 in 10.0 mi NNW 10.4 mph - N/A   Overcast
12:51 AM 33.8 °F 27.0 °F 26.6 °F 75% 29.96 in 10.0 mi NW 8.1 mph - N/A   Overcast
1:11 AM 32.5 °F 24.8 °F 26.2 °F 78% 29.96 in 10.0 mi NNW 9.2 mph - N/A   Mostly Cloudy
1:32 AM 32.0 °F 25.6 °F 26.4 °F 80% 29.96 in 10.0 mi NNW 6.9 mph - N/A   Scattered Clouds
1:52 AM 32.0 °F 24.8 °F 27.0 °F 82% 29.97 in 10.0 mi NNW 8.1 mph - N/A   Mostly Cloudy
2:12 AM 32.7 °F 25.7 °F 27.5 °F 81% 29.97 in 10.0 mi NNW 8.1 mph - N/A   Overcast
2:32 AM 33.3 °F 27.1 °F 27.9 °F 81% 29.97 in 10.0 mi NNW 6.9 mph - N/A   Overcast
2:52 AM 33.3 °F 25.7 °F 28.0 °F 81% 29.97 in 10.0 mi NNW 9.2 mph - N/A   Overcast
3:12 AM 32.4 °F 24.6 °F 29.8 °F 90% 29.98 in 5.0 mi North 9.2 mph - N/A Snow Light Snow
3:32 AM 32.2 °F 26.7 °F 30.6 °F 94% 29.97 in 7.0 mi NNW 5.8 mph - N/A Snow Light Snow
3:52 AM 32.0 °F 25.6 °F 30.0 °F 92% 29.97 in 10.0 mi NNW 6.9 mph - N/A   Overcast
4:12 AM 32.0 °F 25.6 °F 29.3 °F 90% 29.97 in 10.0 mi NNW 6.9 mph - N/A   Overcast
4:33 AM 31.6 °F 26.0 °F 28.8 °F 89% 29.97 in 10.0 mi NW 5.8 mph - N/A   Overcast
4:53 AM 31.5 °F 24.2 °F 29.1 °F 91% 29.97 in 10.0 mi WNW 8.1 mph - N/A   Mostly Cloudy
5:13 AM 31.8 °F 25.4 °F 28.8 °F 88% 29.98 in 10.0 mi NW 6.9 mph - N/A   Mostly Cloudy
5:33 AM 30.7 °F 24.1 °F 28.2 °F 90% 29.98 in 10.0 mi WNW 6.9 mph - N/A   Scattered Clouds
5:53 AM 30.4 °F 23.6 °F 28.2 °F 92% 29.98 in 10.0 mi WNW 6.9 mph - N/A   Mostly Cloudy
6:13 AM 31.3 °F 24.7 °F 28.9 °F 91% 29.99 in 10.0 mi WNW 6.9 mph - N/A   Overcast
6:33 AM 31.8 °F 25.4 °F 29.3 °F 90% 29.99 in 10.0 mi WNW 6.9 mph - N/A   Overcast
6:53 AM 32.0 °F 26.4 °F 29.3 °F 90% 29.99 in 10.0 mi NW 5.8 mph - N/A   Overcast
7:14 AM 31.8 °F 25.4 °F 28.9 °F 89% 30.01 in 10.0 mi NW 6.9 mph - N/A   Overcast
7:34 AM 32.0 °F 25.6 °F 28.9 °F 88% 30.01 in 10.0 mi NW 6.9 mph - N/A   Overcast
7:54 AM 32.0 °F 24.8 °F 28.9 °F 88% 30.02 in 10.0 mi NW 8.1 mph - N/A   Overcast
8:14 AM 32.0 °F 24.8 °F 29.1 °F 89% 30.02 in 10.0 mi WNW 8.1 mph - N/A   Overcast
8:34 AM 32.0 °F 26.4 °F 29.3 °F 90% 30.03 in 10.0 mi NW 5.8 mph - N/A   Overcast
8:54 AM 32.5 °F 26.2 °F 29.5 °F 88% 30.03 in 10.0 mi WNW 6.9 mph - N/A   Overcast
9:14 AM 33.1 °F 26.1 °F 30.0 °F 89% 30.04 in 10.0 mi WNW 8.1 mph - N/A   Overcast
9:34 AM 33.8 °F 27.0 °F 29.8 °F 85% 30.05 in 10.0 mi NW 8.1 mph - N/A   Overcast
9:54 AM 34.7 °F 28.1 °F 30.4 °F 84% 30.05 in 10.0 mi NW 8.1 mph - N/A   Overcast
10:15 AM 35.4 °F 27.8 °F 30.4 °F 82% 30.05 in 10.0 mi WNW 10.4 mph - N/A   Overcast
10:35 AM 37.0 °F 30.4 °F 30.7 °F 78% 30.05 in 10.0 mi WNW 9.2 mph - N/A   Overcast
10:55 AM 37.9 °F 31.5 °F 30.7 °F 75% 30.06 in 10.0 mi WNW 9.2 mph - N/A   Overcast
11:15 AM 39.2 °F 33.0 °F 30.6 °F 71% 30.06 in 10.0 mi WNW 9.2 mph - N/A   Overcast
11:35 AM 38.8 °F 32.1 °F 30.2 °F 71% 30.06 in 10.0 mi WNW 10.4 mph - N/A   Overcast
11:55 AM 38.8 °F 32.6 °F 29.8 °F 70% 30.07 in 10.0 mi NW 9.2 mph 16.1 mph N/A   Overcast
12:15 PM 39.2 °F 33.0 °F 29.8 °F 69% 30.06 in 10.0 mi NW 9.2 mph - N/A   Overcast
12:35 PM 40.3 °F 33.9 °F 29.8 °F 66% 30.06 in 10.0 mi WNW 10.4 mph - N/A   Overcast
12:55 PM 41.0 °F 34.3 °F 29.7 °F 64% 30.06 in 10.0 mi WNW 11.5 mph - N/A   Overcast
1:16 PM 41.4 °F 34.7 °F 28.9 °F 61% 30.06 in 10.0 mi NW 11.5 mph 20.7 mph N/A   Overcast
1:36 PM 41.7 °F 34.8 °F 28.0 °F 58% 30.06 in 10.0 mi NNW 12.7 mph 18.4 mph N/A   Overcast
1:51 PM 42.3 °F 35.1 °F 28.6 °F 58% 30.06 in 10.0 mi NW 13.8 mph - N/A   Overcast
2:11 PM 42.1 °F 34.9 °F 28.8 °F 59% 30.06 in 10.0 mi NW 13.8 mph 18.4 mph N/A   Overcast
2:31 PM 42.1 °F 35.7 °F 28.4 °F 58% 30.05 in 10.0 mi WNW 11.5 mph 16.1 mph N/A   Overcast
2:51 PM 41.2 °F 35.0 °F 27.9 °F 59% 30.05 in 10.0 mi NW 10.4 mph - N/A   Overcast
3:11 PM 40.8 °F 34.5 °F 27.0 °F 58% 30.05 in 10.0 mi NW 10.4 mph 18.4 mph N/A   Overcast
3:31 PM 39.6 °F 33.5 °F 28.8 °F 65% 30.05 in 10.0 mi WNW 9.2 mph - N/A   Overcast
3:51 PM 39.2 °F 33.6 °F 28.4 °F 65% 30.05 in 10.0 mi West 8.1 mph - N/A   Overcast
4:12 PM 39.7 °F 34.9 °F 27.3 °F 61% 30.05 in 10.0 mi West 6.9 mph - N/A   Overcast
4:32 PM 39.4 °F 34.5 °F 28.0 °F 64% 30.05 in 10.0 mi West 6.9 mph - N/A   Overcast
4:52 PM 40.3 °F 34.4 °F 29.5 °F 65% 30.05 in 10.0 mi WNW 9.2 mph - N/A   Overcast
5:12 PM 41.7 °F 35.6 °F 28.4 °F 59% 30.05 in 10.0 mi NW 10.4 mph - N/A   Overcast
5:32 PM 41.4 °F 36.2 °F 27.1 °F 57% 30.06 in 10.0 mi WNW 8.1 mph - N/A   Overcast
5:52 PM 40.6 °F 33.4 °F 27.3 °F 59% 30.06 in 10.0 mi WNW 12.7 mph - N/A   Overcast
6:12 PM 38.8 °F 33.2 °F 28.4 °F 66% 30.06 in 10.0 mi West 8.1 mph - N/A   Overcast
6:32 PM 39.2 °F 34.2 °F 27.5 °F 63% 30.06 in 10.0 mi West 6.9 mph - N/A   Overcast
6:52 PM 37.8 °F 30.7 °F 28.6 °F 69% 30.08 in 10.0 mi WNW 10.4 mph - N/A   Overcast
7:13 PM 35.2 °F 29.5 °F 32.0 °F 88% 30.08 in 10.0 mi West 6.9 mph - N/A   Overcast
7:33 PM 35.1 °F 30.1 °F 32.0 °F 89% 30.08 in 10.0 mi West 5.8 mph - N/A   Overcast
7:53 PM 35.1 °F 29.3 °F 32.0 °F 89% 30.09 in 10.0 mi West 6.9 mph - N/A   Overcast
8:13 PM 34.7 °F 28.8 °F 32.0 °F 90% 30.09 in 10.0 mi West 6.9 mph - N/A   Overcast
8:33 PM 34.7 °F 29.6 °F 32.0 °F 90% 30.10 in 10.0 mi West 5.8 mph - N/A   Overcast
8:53 PM 34.5 °F 29.4 °F 31.8 °F 90% 30.10 in 10.0 mi West 5.8 mph - N/A   Overcast
9:13 PM 34.2 °F 29.0 °F 31.6 °F 90% 30.11 in 10.0 mi West 5.8 mph - N/A   Overcast
9:33 PM 33.8 °F 28.6 °F 31.5 °F 91% 30.11 in 10.0 mi WNW 5.8 mph - N/A   Overcast
9:54 PM 34.9 °F 28.3 °F 27.1 °F 73% 30.12 in 10.0 mi NW 8.1 mph - N/A   Overcast
10:14 PM 34.9 °F 28.3 °F 24.8 °F 67% 30.12 in 10.0 mi WNW 8.1 mph - N/A   Mostly Cloudy
10:34 PM 34.7 °F 27.5 °F 24.6 °F 67% 30.13 in 10.0 mi NW 9.2 mph 17.3 mph N/A   Scattered Clouds
10:54 PM 33.8 °F 27.7 °F 24.4 °F 69% 30.13 in 10.0 mi WNW 6.9 mph - N/A   Clear
11:14 PM 33.3 °F 27.1 °F 24.3 °F 70% 30.13 in 10.0 mi WNW 6.9 mph - N/A   Clear
11:34 PM 32.4 °F 25.3 °F 24.3 °F 72% 30.13 in 10.0 mi WNW 8.1 mph - N/A   Clear
11:54 PM 32.0 °F 25.6 °F 23.9 °F 72% 30.13 in 10.0 mi WNW 6.9 mph - N/A   Clear